一网星座-0606星 (ONEWEB-0606 )

导读 | 星芒AI

ONEWE-0606 是 OneWeb 卫星通信星座计划中的一颗低轨通信卫星,旨在为全球提供高速互联网服务。该卫星由空中客车防务与航天公司制造,采用标准化设计以降低发射成本并提高部署效率。OneWeb 项目致力于填补数字鸿沟,特别是在偏远和农村地区。ONEWE-0606 于 2022 年 6 月发射,运行在约 1200 公里的近地轨道上,与其他卫星协同工作,构建全球宽带网络。

基本信息
目录编号:
54670
目录名称:
ONEWEB-0606
国际标识:
2022-166AE
轨道中心:
EARTH
卫星名称:
一网星座-0606星
卫星全名:
一网星座-0606星 (ONEWEB-0606 )
卫星状态:
在轨 (已飞行1057 天)
发射日期:
2022-12-08 UTC
国别 :
英国 (GB)
星等 :
--
轨道信息
数据来源 国际轨道数据
星历时间: 2025-10-30T07:11:41+0800
6小时前
查看轨道信息
半长轴: 7555.885km
偏心率: 0.0002084
轨道倾角: 87.917°
近地点辐角 88.045°
升交点赤经 289.934°
平近点角 272.092°
近地点: 1176.175km
远地点: 1179.325km
周期: 108.940分钟
每日圈数: 13.218276
详细信息
平衡模式:
三轴稳定
覆盖范围:
全球
运营商:
一网卫星公司
运营商所在国:
英国
制造商(研发单位):
一网卫星公司
制造商所在国:
英国
使用方式:
暂无
卫星简介
OneWeb卫星网络由648颗重约125公斤的微型卫星组成,运行在1200公里的轨道上。 每颗卫星都能够提供至少每秒8千兆位的吞吐量,以使用其高吞吐量的Ku频段有效载荷为家庭和移动平台提供互联网接入。该卫星仍在工作。
2D轨道图
3D轨道图
轨道高度分析图
轨道倾角分析图
轨道综合分析图
查看轨道综合分析图